Regional Weather Roundup
Issued by NWS Grand Forks, ND

Home | Current Version | Previous Version | Text Only | Print | Product List | Glossary On
Versions: 1 2 3 4 5 6 7 8 9 10 11 12 13 14 15 16 17 18 19 20 21 22 23 24 25 26 27 28 29 30 31 32 33 34 35 36 37 38 39 40 41 42 43 44 45 46 47 48 49 50
000
ASUS43 KFGF 211631
RWRFGF
PRAIRIE TO PINES  WEATHER ROUNDUP
NATIONAL WEATHER SERVICE EASTERN NORTH DAKOTA/GRAND FORKS ND
1000 AM CST TUE FEB 21 2017

 **SATELLITE DATA USED TO AUGMENT SKY COVER AT AUTOMATED STATIONS**
 *****  WEATHER ACROSS EASTERN NORTH DAKOTA  *****

CITY           SKY/WX    TMP DP  RH WIND       PRES   REMARKS
GRAND FORKS    FAIR      36  31  82 SE8       29.68F HAZE
GRAND FRKS AFB MOSUNNY   36  34  93 S3        29.68F
DEVILS LAKE    FAIR      35  32  88 S7        29.66S
FARGO          FAIR      40  34  79 S9        29.68F
WAHPETON ARPT  FAIR      41  34  75 S9        29.69F
$$

 ***** WEATHER ACROSS CENTRAL AND WESTERN NORTH DAKOTA  *****

CITY           SKY/WX    TMP DP  RH WIND       PRES   REMARKS
BISMARCK       FAIR      37  32  82 CALM      29.70S
MINOT          FAIR      41  31  67 NW6       29.64S
JAMESTOWN      FAIR      39  33  79 W12       29.65S
MINOT AFB      FAIR      36  31  82 W6        29.64S
GARRISON         N/A     35  29  78 W3        29.66F
WILLISTON      FAIR      37  31  78 SW10      29.66S
DICKINSON      FAIR      47  31  53 W6        29.68S
HETTINGER      FAIR      50  33  52 W5        29.73F
$$

 *****  OTHER AIRPORT OBSERVATIONS IN OUR AREA  *****

CITY           SKY/WX    TMP DP  RH WIND       PRES   REMARKS
WALHALLA       NOT AVBL
GRAFTON AIRPOR FAIR      32  32 100 CALM      29.72S FOG
VALLEY CITY AR FAIR      37  37 100 W6        29.68S
CANDO          NOT AVBL
CAVALIER APRT  FOG       32  32 100 E3        29.71S VSB<1/4
GWINNER        FAIR      43  37  81 SW10      29.68S
SHEYENNE NWR     N/A     42  35  76 SW7       29.95S
ROLLA          FAIR      32  32 100 NE5       29.67S
 ***** THE ABOVE OBSERVATIONS ARE NON NWS ARE NOT QUALITY
       CONTROLLED AND MAY MIS-REPORT RAIN FOR SNOW...
$$

  *****  WEATHER ACROSS NORTHERN MINNESOTA  *****

CITY           SKY/WX    TMP DP  RH WIND       PRES   REMARKS
FLAG ISLAND    CLOUDY    30  30 100 S5        29.72F FOG
WARROAD        CLOUDY    34  28  80 CALM      29.73F FOG
ROSEAU         HAZE      32  27  80 SE3       29.72F VSB<1/4
HALLOCK        FAIR      36  34  93 E7        29.69F FOG
THF RVR FALLS  FAIR      37  34  89 SE10      29.70F FOG
BAUDETTE       CLOUDY    33  31  92 CALM      29.73F
WASKISH        CLOUDY    36  36 100 SE6       29.74F FOG
CROOKSTON      FAIR      39  37  93 E5        29.69F
STEPHEN NDAWN    N/A     34  34 100 E3          N/A
GREENBUSH NDAW   N/A     30  30 100 E7          N/A  WCI  23
$$
  *****  WEATHER ACROSS CENTRAL AND WEST MINNESOTA  *****

CITY           SKY/WX    TMP DP  RH WIND       PRES   REMARKS
FOSSTON        FAIR      43  39  87 E5        29.70F
BEMIDJI        FAIR      34  34  99 E7        29.73F FOG
PARK RAPIDS    FAIR      36  32  85 SE10      29.73F
ELBOW LAKE     FAIR      43  38  81 S14       29.72F
WADENA         FAIR      41  36  81 SE8       29.73F
DETROIT LAKES  FAIR      45  36  70 S8        29.70S
MOORHEAD       FAIR      37  34  87 S9        29.69F
FERGUS FALLS   FAIR      43  37  81 S13       29.74F
MORRIS MN      FAIR      45  39  81 S9        29.73R
STAPLES        FAIR      39  39 100 SE6       29.75F
$$
  *****  WEATHER ELSEWHERE ACROSS MINNESOTA  *****

CITY           SKY/WX    TMP DP  RH WIND       PRES   REMARKS
DULUTH         FOG       35  34  96 W9        29.82R VSB 1
INTRNTL FALLS  CLOUDY    34  32  92 SW3       29.75F FOG
ELY            CLOUDY    34  32  93 W5        29.78S
CLOQUET        CLOUDY    34  34 100 S8        29.82S FOG
WHEATON        FAIR      45  37  76 S10       29.72F
BRAINERD       FAIR      35  35 100 SE7       29.80F FOG
HIBBING        CLOUDY    34  34 100 S5        29.79S FOG
ALEXANDRIA     FAIR      46  36  68 S15       29.74F
SAINT CLOUD    FAIR      35  35 100 SE8       29.81F FOG
MINNEAPOLIS    FAIR      37  36  96 S3        29.89S
$$

  *****  WEATHER ACROSS SOUTH DAKOTA  *****

CITY           SKY/WX    TMP DP  RH WIND       PRES   REMARKS
SIOUX FALLS    FAIR      49  36  61 S15G22    29.82F
BROOKINGS      FAIR      45  35  68 SW14      29.77F
WATERTOWN      FAIR      43  35  73 S12       29.74F
HURON          FAIR      46  34  62 S3        29.75F
SISSETON         N/A     47  36  65 CALM      29.69F
ABERDEEN       FAIR      41  33  73 S8        29.72S
MITCHELL       FAIR      53  31  42 SW12      29.79S
PIERRE         FAIR      52  33  48 W10       29.73F
MOBRIDGE       FAIR      43  34  70 CALM      29.69S
RAPID CITY     FAIR      61  33  35 W17       29.75S
$$

  *****  SOME WEATHER IN NEARBY STATES *****

CITY           SKY/WX    TMP DP  RH WIND       PRES   REMARKS
GLASGOW MT     FAIR      37  32  82 W12       29.65S
GREAT FALLS MT CLOUDY    41  34  76 S8        29.61S
CHEYENNE WY    FAIR      54  24  31 W21G40    30.06R
SCOTTSBLUFF NE FAIR      59  30  33 W8        29.92F
OMAHA NE       FAIR      47  41  80 S7        29.99F
DES MOINES IA  FAIR      52  45  77 W6        29.99R
DAVENPORT IA   FAIR      51  47  86 N5        29.97R
CHICAGO IL     CLOUDY    58  54  86 S8        29.94S FOG
EAU CLAIRE WI  CLOUDY    37  36  96 SW7       29.91R FOG
LA CROSSE WI   FAIR      45  38  76 SE6       29.93F
$$

  *****  SOME NATIONAL WEATHER *****

CITY           SKY/WX    TMP DP  RH WIND       PRES   REMARKS
LA GUARDIA NY  PTSUNNY   44  22  41 NE10      30.36F
RALEIGH NC     CLOUDY    56  32  40 E7        30.28S
ATLANTA GA     PTSUNNY   62  51  67 SE9       30.13R
NEW ORLEANS LA LGT RAIN  62  59  90 S5        30.00S
OKLAHOMA CITY  FAIR      55  44  66 NW13      30.02R
ALBUQUERQUE NM FAIR      49  32  52 NW12      30.36F
SALT LAKE CITY FAIR      54  38  54 S24G37    30.04S
LOS ANGELES CA LGT RAIN  59  57  93 CALM      30.32R
BOISE ID       FAIR      50  34  54 S17       29.88R
SEATTLE WA     LGT RAIN  42  41  96 N7        29.78R FOG
$$

*** WEATHER ACROSS MANITOBA...SASKATCHEWAN AND ONTARIO ***
                ***ONTARIO***

CITY           SKY/WX    TMP DP  RH WIND       PRES   REMARKS
GERALDTON      LGT RAIN  36  32  87 W18G26    29.58R FOG
THUNDER BAY    PTSUNNY   39  32  75 W14       29.73S
SIOUX LOOKOUT  CLOUDY    34  30  86 W8G18     29.68R
TORONTO        CLOUDY    39  28  65 SE6       29.99F
BIG TROUT LK   CLOUDY    28  25  86 NW24G35   29.36R WCI  14
PICKLE LAKE    FLURRIES  32  28  86 W21G32    29.54R WCI  20
DRYDEN         CLOUDY    34  32  93 W13       29.70R WCI  25
KENORA         CLOUDY    32  32 100 SW9       29.71S WCI  24
$$
                *** MANITOBA***

CITY           SKY/WX    TMP DP  RH WIND       PRES   REMARKS
BRANDON        MOSUNNY   34  30  86 NE2       29.69S
DAUPHIN        CLOUDY    36  30  80 W7        29.69R
ISLAND LAKE    NOT AVBL
PILOT MOUND      N/A     32  32 100 E3          N/A
THE PAS        CLOUDY    32  23  69 NW8       29.65S WCI  25
THOMPSON       CLOUDY    18  12  79 NW12      29.52S WCI   5
WINNIPEG       LGT SNOW  34  32  93 SW3       29.71F
LYNN LAKE      FLURRIES  16  12  86 NW10      29.55S WCI   3
CHURCHILL      LGT SNOW  12   9  85 NE25      29.44F VSB 3/4 WCI  -8
GILLAM         FLURRIES  10   5  79 W16G25    29.42S WCI  -7
$$
                ***SASKATCHEWAN***

CITY           SKY/WX    TMP DP  RH WIND       PRES   REMARKS
ESTEVAN        PTSUNNY   34  30  86 S5        29.63F
KINDERSLEY     MOSUNNY   30  27  86 N3        29.70R
LLOYDMINSTER   CLOUDY    30  27  86 SW6       29.68R WCI  24
PRINCE ALBERT  CLOUDY    32  27  80 W6        29.69R
REGINA         FLURRIES  32  30  93 NE12      29.65R WCI  23
YORKTON        PTSUNNY   32  30  93 SW3       29.66S
N. BATTLEFORD  CLOUDY    32  27  80 N5        29.72R
LA RONGE       PTSUNNY   28  23  80 W8        29.65S WCI  20
SASKATOON      CLOUDY    32  27  80 N7        29.71R
SWIFT CURRENT  CLOUDY    30  30 100 NE9       29.64R FOG     WCI  22
$$
NOTE: THESE ARE AUTOMATED STATIONS WITH LIMITED QUALITY CONTROL
      "FAIR" INDICATES FEW OR NO CLOUDS BELOW 12,000 FEET WITH NO
      SIGNIFICANT WEATHER AND/OR OBSTRUCTIONS TO VISIBILITY.
      SKY/WX - SKY CONDITION AND SIGNIFICANT WEATHER.
      TMP - AIR TEMPERATURE.    DP   - DEWPOINT TEMPERATURE.
      RH  - RELATIVE HUMIDITY.  PRES - PRESSURE.
      HX  - HEAT INDEX.         WCI  - WIND CHILL INDEX.
$



USA.gov is the U.S. government's official web portal to all federal, state and local government web resources and services.